Flag for Lithuania Weather past 2 weeks in Kaunas, Lithuania

Now
37 °F

Passing clouds.


Feels Like: 30 °F
Forecast: 29 / 42 °F
Wind: 10 mph from Southeast

Location: Kaunas

Current Time: Oct 25, 2014 at 6:06:10 PM

Latest Report: Oct 25, 2014 at 5:20 PM


Visibility: N/A

Pressure: 30.36 "Hg

Humidity: 26%

Dew point: 5 °F

Location of KaunasLocation

Historic Weather in Kaunas — Graph

°F

Kaunas temperature yesterday

Maximum temperature yesterday: 36 °F (at 2:50 PM)
Minimum temperature yesterday: 18 °F (at 8:20 AM)
Average temperature yesterday: 27 °F

Past Weeks' High & Low Weather Summary

 TemperatureHumidityPressure
High70 °F (Oct 10, 4:20 PM)100% (Oct 15, 4:20 AM)30.54 "Hg (Oct 15, 4:20 AM)
Low18 °F (Oct 24, 8:20 AM)20% (Oct 25, 4:20 PM)29.50 "Hg (Oct 20, 5:50 PM)
Average45 °F77%29.96 "Hg
* Reported Oct 10 4:20 PM — Oct 25 4:50 PM, Kaunas, Weather by CustomWeather, © 2014

Note: Actual official high and low records may vary slightly from our data, if they occured in-between our weather recording intervals... More about our weather records

Advertising

Kaunas weather history for previous 24 hours

 ConditionsComfort  
Time TempWeatherWind HumidityBarometerVisibility
4:50 PM
Oct 25
39 °FPassing clouds.10 mph24%30.39 "HgN/A
4:20 PM41 °FPassing clouds.12 mph20%30.39 "HgN/A
3:50 PM39 °FSunny.14 mph22%30.39 "Hg10 mi
3:20 PM39 °FPassing clouds.14 mph24%30.39 "HgN/A
2:50 PM39 °FSunny.15 mph24%30.39 "Hg10 mi
2:20 PM37 °FPassing clouds.15 mph28%30.42 "HgN/A
1:50 PM37 °FPassing clouds.13 mph28%30.42 "HgN/A
1:20 PM36 °FPassing clouds.14 mph30%30.45 "HgN/A
12:50 PM34 °FPassing clouds.13 mph35%30.45 "HgN/A
12:20 PM34 °FPassing clouds.12 mph38%30.45 "HgN/A
11:50 AM32 °FPassing clouds.12 mph40%30.45 "HgN/A
11:20 AM30 °FPassing clouds.10 mph43%30.48 "HgN/A
10:50 AM28 °FPassing clouds.10 mph47%30.48 "HgN/A
10:20 AM27 °FPassing clouds.9 mph50%30.48 "HgN/A
9:50 AM27 °FSunny.13 mph50%30.48 "Hg10 mi
9:20 AM25 °FPassing clouds.9 mph54%30.48 "HgN/A
8:50 AM25 °FPassing clouds.9 mph54%30.48 "HgN/A
8:20 AM23 °FPassing clouds.8 mph58%30.48 "HgN/A
7:50 AM25 °FClear.12 mph50%30.48 "Hg10 mi
7:20 AM25 °FPassing clouds.9 mph50%30.45 "HgN/A
6:50 AM25 °FPassing clouds.10 mph50%30.48 "HgN/A
6:20 AM25 °FClear.12 mph50%30.48 "Hg10 mi
5:50 AM25 °FPassing clouds.9 mph50%30.48 "HgN/A
5:20 AM25 °FPassing clouds.10 mph50%30.48 "HgN/A
4:50 AM27 °FPassing clouds.10 mph46%30.48 "HgN/A
4:20 AM27 °FPassing clouds.10 mph50%30.48 "HgN/A
3:50 AM27 °FClear.13 mph50%30.48 "Hg10 mi
3:20 AM27 °FChilly.13 mph50%30.48 "HgN/A
2:50 AM27 °FChilly.12 mph50%30.51 "HgN/A
2:20 AM27 °FChilly.13 mph50%30.51 "HgN/A
1:50 AM27 °FChilly.14 mph50%30.51 "HgN/A
1:20 AM28 °FChilly.14 mph47%30.51 "HgN/A
12:50 AM28 °FChilly.13 mph47%30.51 "HgN/A
12:20 AM28 °FChilly.14 mph43%30.51 "HgN/A
11:50 PM
Oct 24
28 °FClear.12 mph43%30.51 "Hg10 mi
11:20 PM28 °FClear.12 mph43%30.51 "Hg10 mi
10:50 PM30 °FClear.13 mph37%30.51 "Hg10 mi
10:20 PM28 °FClear.9 mph43%30.51 "Hg10 mi
9:50 PM28 °FPassing clouds.10 mph40%30.51 "HgN/A
9:20 PM28 °FPassing clouds.7 mph40%30.51 "HgN/A
8:50 PM28 °FPassing clouds.8 mph40%30.51 "HgN/A
8:20 PM28 °FClear.7 mph40%30.51 "Hg10 mi
7:50 PM30 °FPassing clouds.9 mph37%30.51 "HgN/A
7:20 PM30 °FClear.7 mph37%30.51 "Hg10 mi
6:50 PM30 °FSunny.7 mph37%30.51 "Hg10 mi
6:20 PM30 °FSunny.7 mph34%30.51 "Hg10 mi
Weather by CustomWeather, © 2014

See weather overviewHow to use our weather pages